Time,TemperatureF,DewpointF,PressureIn,WindDirection,WindDirectionDegrees,WindSpeedMPH,WindSpeedGustMPH,Humidity,HourlyPrecipIn,Conditions,Clouds,dailyrainin,SoftwareType,DateUTC
2013-01-13 00:03:00,65.0,-99.9,-100.00,South,170,8.0,-999.0,-999,0.00,,,-99.99,,2013-01-13 06:03:00,
2013-01-13 00:12:00,65.0,-99.9,-100.00,SSE,162,10.0,-999.0,-999,0.00,,,-99.99,,2013-01-13 06:12:00,
2013-01-13 00:22:00,65.0,-99.9,-100.00,SSE,162,10.0,-999.0,-999,0.00,,,-99.99,,2013-01-13 06:22:00,
2013-01-13 00:33:00,65.0,-99.9,-100.00,SSE,159,9.0,-999.0,-999,0.00,,,-99.99,,2013-01-13 06:33:00,
2013-01-13 00:43:00,65.0,-99.9,-100.00,SSE,159,9.0,-999.0,-999,0.00,,,-99.99,,2013-01-13 06:43:00,
2013-01-13 00:53:00,65.0,-99.9,-100.00,SSE,160,6.0,-999.0,-999,0.00,,,-99.99,,2013-01-13 06:53:00,
2013-01-13 01:02:00,65.0,-99.9,-100.00,SSE,150,7.0,-999.0,-999,0.00,,,-99.99,,2013-01-13 07:02:00,
2013-01-13 01:12:00,65.0,-99.9,-100.00,SSE,150,7.0,-999.0,-999,0.00,,,-99.99,,2013-01-13 07:12:00,
2013-01-13 01:22:00,65.0,-99.9,-100.00,SSE,149,5.0,-999.0,-999,0.00,,,-99.99,,2013-01-13 07:22:00,
2013-01-13 01:33:00,65.0,-99.9,-100.00,SSE,160,9.0,-999.0,-999,0.00,,,-99.99,,2013-01-13 07:33:00,
2013-01-13 01:42:00,65.0,-99.9,-100.00,SSE,160,9.0,-999.0,-999,0.00,,,-99.99,,2013-01-13 07:42:00,
2013-01-13 01:53:00,65.0,-99.9,-100.00,SSE,158,9.0,-999.0,-999,0.00,,,-99.99,,2013-01-13 07:53:00,
2013-01-13 02:02:00,65.0,-99.9,-100.00,SSE,160,7.0,-999.0,-999,0.00,,,-99.99,,2013-01-13 08:02:00,
2013-01-13 02:12:00,65.0,-99.9,-100.00,SSE,160,7.0,-999.0,-999,0.00,,,-99.99,,2013-01-13 08:12:00,
2013-01-13 02:22:00,65.0,-99.9,-100.00,South,177,8.0,-999.0,-999,0.00,,,-99.99,,2013-01-13 08:22:00,
2013-01-13 02:33:00,65.0,-99.9,-100.00,South,169,10.0,-999.0,-999,0.00,,,-99.99,,2013-01-13 08:33:00,
2013-01-13 02:42:00,65.0,-99.9,-100.00,South,169,10.0,-999.0,-999,0.00,,,-99.99,,2013-01-13 08:42:00,
2013-01-13 02:53:00,64.0,-99.9,-100.00,SE,146,8.0,-999.0,-999,0.00,,,-99.99,,2013-01-13 08:53:00,
2013-01-13 03:02:00,65.0,-99.9,-100.00,South,187,8.0,-999.0,-999,0.00,,,-99.99,,2013-01-13 09:02:00,
2013-01-13 03:12:00,65.0,-99.9,-100.00,SSE,160,8.0,-999.0,-999,0.00,,,-99.99,,2013-01-13 09:12:00,
2013-01-13 03:22:00,65.0,-99.9,-100.00,SSE,160,8.0,-999.0,-999,0.00,,,-99.99,,2013-01-13 09:22:00,
2013-01-13 03:32:00,65.0,-99.9,-100.00,South,181,7.0,-999.0,-999,0.00,,,-99.99,,2013-01-13 09:32:00,
2013-01-13 03:43:00,65.0,-99.9,-100.00,South,181,7.0,-999.0,-999,0.00,,,-99.99,,2013-01-13 09:43:00,
2013-01-13 03:53:00,65.0,-99.9,-100.00,South,173,9.0,-999.0,-999,0.00,,,-99.99,,2013-01-13 09:53:00,
2013-01-13 04:03:00,65.0,-99.9,-100.00,South,173,5.0,-999.0,-999,0.00,,,-99.99,,2013-01-13 10:03:00,
2013-01-13 04:12:00,65.0,-99.9,-100.00,South,173,5.0,-999.0,-999,0.00,,,-99.99,,2013-01-13 10:12:00,
2013-01-13 04:22:00,64.0,-99.9,-100.00,South,180,7.0,-999.0,-999,0.00,,,-99.99,,2013-01-13 10:22:00,
2013-01-13 04:33:00,64.0,-99.9,-100.00,South,177,11.0,-999.0,-999,0.00,,,-99.99,,2013-01-13 10:33:00,
2013-01-13 04:42:00,64.0,-99.9,-100.00,South,177,11.0,-999.0,-999,0.00,,,-99.99,,2013-01-13 10:42:00,
2013-01-13 04:53:00,64.0,-99.9,-100.00,South,180,8.0,-999.0,-999,0.00,,,-99.99,,2013-01-13 10:53:00,
2013-01-13 05:02:00,65.0,-99.9,-100.00,South,179,10.0,-999.0,-999,0.00,,,-99.99,,2013-01-13 11:02:00,
2013-01-13 05:12:00,66.0,-99.9,-100.00,South,184,10.0,-999.0,-999,0.00,,,-99.99,,2013-01-13 11:12:00,
2013-01-13 05:22:00,66.0,-99.9,-100.00,South,184,10.0,-999.0,-999,0.00,,,-99.99,,2013-01-13 11:22:00,
2013-01-13 05:33:00,65.0,-99.9,-100.00,South,173,7.0,-999.0,-999,0.00,,,-99.99,,2013-01-13 11:33:00,
2013-01-13 05:43:00,65.0,-99.9,-100.00,South,173,7.0,-999.0,-999,0.00,,,-99.99,,2013-01-13 11:43:00,
2013-01-13 05:53:00,65.0,-99.9,-100.00,South,181,9.0,-999.0,-999,0.00,,,-99.99,,2013-01-13 11:53:00,
2013-01-13 06:03:00,65.0,-99.9,-100.00,SSE,163,10.0,-999.0,-999,0.00,,,-99.99,,2013-01-13 12:03:00,
2013-01-13 06:12:00,65.0,-99.9,-100.00,SSE,163,10.0,-999.0,-999,0.00,,,-99.99,,2013-01-13 12:12:00,
2013-01-13 06:22:00,64.0,-99.9,-100.00,South,169,7.0,-999.0,-999,0.00,,,-99.99,,2013-01-13 12:22:00,
2013-01-13 06:33:00,64.0,-99.9,-100.00,South,174,8.0,-999.0,-999,0.00,,,-99.99,,2013-01-13 12:33:00,
2013-01-13 06:42:00,64.0,-99.9,-100.00,South,174,8.0,-999.0,-999,0.00,,,-99.99,,2013-01-13 12:42:00,
2013-01-13 06:53:00,65.0,-99.9,-100.00,South,179,8.0,-999.0,-999,0.00,,,-99.99,,2013-01-13 12:53:00,
2013-01-13 07:03:00,65.0,-99.9,-100.00,SSE,163,9.0,-999.0,-999,0.00,,,-99.99,,2013-01-13 13:03:00,
2013-01-13 07:12:00,65.0,-99.9,-100.00,SSE,163,9.0,-999.0,-999,0.00,,,-99.99,,2013-01-13 13:12:00,
2013-01-13 07:22:00,65.0,-99.9,-100.00,SSE,160,7.0,-999.0,-999,0.00,,,-99.99,,2013-01-13 13:22:00,
2013-01-13 07:33:00,64.0,-99.9,-100.00,SSE,153,8.0,-999.0,-999,0.00,,,-99.99,,2013-01-13 13:33:00,
2013-01-13 07:43:00,64.0,-99.9,-100.00,SSE,153,8.0,-999.0,-999,0.00,,,-99.99,,2013-01-13 13:43:00,
2013-01-13 07:53:00,65.0,-99.9,-100.00,South,176,9.0,-999.0,-999,0.00,,,-99.99,,2013-01-13 13:53:00,
2013-01-13 08:03:00,65.0,-99.9,-100.00,South,190,11.0,-999.0,-999,0.00,,,-99.99,,2013-01-13 14:03:00,
2013-01-13 08:13:00,65.0,-99.9,-100.00,South,190,11.0,-999.0,-999,0.00,,,-99.99,,2013-01-13 14:13:00,
2013-01-13 08:23:00,65.0,-99.9,-100.00,South,174,12.0,-999.0,-999,0.00,,,-99.99,,2013-01-13 14:23:00,
2013-01-13 08:33:00,65.0,-99.9,-100.00,South,174,10.0,-999.0,-999,0.00,,,-99.99,,2013-01-13 14:33:00,
2013-01-13 08:43:00,65.0,-99.9,-100.00,South,174,10.0,-999.0,-999,0.00,,,-99.99,,2013-01-13 14:43:00,
2013-01-13 08:53:00,65.0,-99.9,-100.00,South,170,8.0,-999.0,-999,0.00,,,-99.99,,2013-01-13 14:53:00,
2013-01-13 09:03:00,66.0,-99.9,-100.00,SSE,166,7.0,-999.0,-999,0.00,,,-99.99,,2013-01-13 15:03:00,
2013-01-13 09:13:00,66.0,-99.9,-100.00,SSE,166,7.0,-999.0,-999,0.00,,,-99.99,,2013-01-13 15:13:00,
2013-01-13 09:23:00,66.0,-99.9,-100.00,South,180,13.0,-999.0,-999,0.00,,,-99.99,,2013-01-13 15:23:00,
2013-01-13 09:33:00,67.0,-99.9,-100.00,SE,145,12.0,-999.0,-999,0.00,,,-99.99,,2013-01-13 15:33:00,
2013-01-13 09:43:00,67.0,-99.9,-100.00,SE,145,12.0,-999.0,-999,0.00,,,-99.99,,2013-01-13 15:43:00,
2013-01-13 09:53:00,67.0,-99.9,-100.00,SSE,159,16.0,-999.0,-999,0.00,,,-99.99,,2013-01-13 15:53:00,
2013-01-13 10:04:00,67.0,-99.9,-100.00,SSE,159,10.0,-999.0,-999,0.00,,,-99.99,,2013-01-13 16:04:00,
2013-01-13 10:13:00,67.0,-99.9,-100.00,SSE,159,10.0,-999.0,-999,0.00,,,-99.99,,2013-01-13 16:13:00,
2013-01-13 10:23:00,68.0,-99.9,-100.00,South,181,9.0,-999.0,-999,0.00,,,-99.99,,2013-01-13 16:23:00,
2013-01-13 10:34:00,70.0,-99.9,-100.00,SSE,158,12.0,-999.0,-999,0.00,,,-99.99,,2013-01-13 16:34:00,
2013-01-13 10:43:00,70.0,-99.9,-100.00,SSE,158,12.0,-999.0,-999,0.00,,,-99.99,,2013-01-13 16:43:00,
2013-01-13 10:53:00,71.0,-99.9,-100.00,SSW,203,10.0,-999.0,-999,0.00,,,-99.99,,2013-01-13 16:53:00,
2013-01-13 11:03:00,70.0,-99.9,-100.00,SW,217,7.0,-999.0,-999,0.00,,,-99.99,,2013-01-13 17:03:00,
2013-01-13 11:13:00,70.0,-99.9,-100.00,SW,217,7.0,-999.0,-999,0.00,,,-99.99,,2013-01-13 17:13:00,
2013-01-13 11:23:00,70.0,-99.9,-100.00,SSW,194,10.0,-999.0,-999,0.00,,,-99.99,,2013-01-13 17:23:00,
2013-01-13 11:33:00,70.0,-99.9,-100.00,SSE,158,8.0,-999.0,-999,0.00,,,-99.99,,2013-01-13 17:33:00,
2013-01-13 11:43:00,70.0,-99.9,-100.00,SSE,158,8.0,-999.0,-999,0.00,,,-99.99,,2013-01-13 17:43:00,
2013-01-13 11:53:00,70.0,-99.9,-100.00,South,181,8.0,-999.0,-999,0.00,,,-99.99,,2013-01-13 17:53:00,
2013-01-13 12:03:00,69.0,-99.9,-100.00,South,180,9.0,-999.0,-999,0.00,,,-99.99,,2013-01-13 18:03:00,
2013-01-13 12:12:00,69.0,-99.9,-100.00,South,180,9.0,-999.0,-999,0.00,,,-99.99,,2013-01-13 18:12:00,
2013-01-13 12:23:00,70.0,-99.9,-100.00,South,186,6.0,-999.0,-999,0.00,,,-99.99,,2013-01-13 18:23:00,
2013-01-13 12:33:00,70.0,-99.9,-100.00,South,179,9.0,-999.0,-999,0.00,,,-99.99,,2013-01-13 18:33:00,
2013-01-13 12:43:00,70.0,-99.9,-100.00,South,179,9.0,-999.0,-999,0.00,,,-99.99,,2013-01-13 18:43:00,
2013-01-13 12:54:00,70.0,-99.9,-100.00,SSE,160,7.0,-999.0,-999,0.00,,,-99.99,,2013-01-13 18:54:00,
2013-01-13 13:03:00,70.0,-99.9,-100.00,SE,146,11.0,-999.0,-999,0.00,,,-99.99,,2013-01-13 19:03:00,
2013-01-13 13:12:00,70.0,-99.9,-100.00,SE,146,11.0,-999.0,-999,0.00,,,-99.99,,2013-01-13 19:12:00,
2013-01-13 13:23:00,70.0,-99.9,-100.00,South,172,6.0,-999.0,-999,0.00,,,-99.99,,2013-01-13 19:23:00,
2013-01-13 13:33:00,70.0,-99.9,-100.00,South,177,5.0,-999.0,-999,0.00,,,-99.99,,2013-01-13 19:33:00,
2013-01-13 13:43:00,70.0,-99.9,-100.00,South,177,5.0,-999.0,-999,0.00,,,-99.99,,2013-01-13 19:43:00,
2013-01-13 13:53:00,70.0,-99.9,-100.00,South,186,9.0,-999.0,-999,0.00,,,-99.99,,2013-01-13 19:53:00,
2013-01-13 14:03:00,69.0,-99.9,-100.00,South,170,4.0,-999.0,-999,0.00,,,-99.99,,2013-01-13 20:03:00,
2013-01-13 14:12:00,69.0,-99.9,-100.00,South,170,4.0,-999.0,-999,0.00,,,-99.99,,2013-01-13 20:12:00,
2013-01-13 14:23:00,68.0,-99.9,-100.00,SW,217,8.0,-999.0,-999,0.00,,,-99.99,,2013-01-13 20:23:00,
2013-01-13 14:33:00,69.0,-99.9,-100.00,SSE,153,8.0,-999.0,-999,0.00,,,-99.99,,2013-01-13 20:33:00,
2013-01-13 14:43:00,69.0,-99.9,-100.00,SSE,153,8.0,-999.0,-999,0.00,,,-99.99,,2013-01-13 20:43:00,
2013-01-13 14:53:00,69.0,-99.9,-100.00,SE,139,3.0,-999.0,-999,0.00,,,-99.99,,2013-01-13 20:53:00,
2013-01-13 15:03:00,68.0,-99.9,-100.00,SSE,153,9.0,-999.0,-999,0.00,,,-99.99,,2013-01-13 21:03:00,
2013-01-13 15:13:00,68.0,-99.9,-100.00,SSE,153,9.0,-999.0,-999,0.00,,,-99.99,,2013-01-13 21:13:00,
2013-01-13 15:23:00,67.0,-99.9,-100.00,SE,127,3.0,-999.0,-999,0.00,,,-99.99,,2013-01-13 21:23:00,
2013-01-13 15:33:00,67.0,-99.9,-100.00,South,172,9.0,-999.0,-999,0.00,,,-99.99,,2013-01-13 21:33:00,
2013-01-13 15:43:00,67.0,-99.9,-100.00,South,172,9.0,-999.0,-999,0.00,,,-99.99,,2013-01-13 21:43:00,
2013-01-13 15:53:00,67.0,-99.9,-100.00,SSE,156,3.0,-999.0,-999,0.00,,,-99.99,,2013-01-13 21:53:00,
2013-01-13 16:03:00,67.0,-99.9,-100.00,SSE,166,9.0,-999.0,-999,0.00,,,-99.99,,2013-01-13 22:03:00,
2013-01-13 16:13:00,67.0,-99.9,-100.00,SSE,166,9.0,-999.0,-999,0.00,,,-99.99,,2013-01-13 22:13:00,
2013-01-13 16:23:00,67.0,-99.9,-100.00,SSW,197,3.0,-999.0,-999,0.00,,,-99.99,,2013-01-13 22:23:00,
2013-01-13 16:33:00,68.0,-99.9,-100.00,SSW,204,8.0,-999.0,-999,0.00,,,-99.99,,2013-01-13 22:33:00,
2013-01-13 16:43:00,68.0,-99.9,-100.00,SSW,204,8.0,-999.0,-999,0.00,,,-99.99,,2013-01-13 22:43:00,
2013-01-13 16:53:00,69.0,-99.9,-100.00,South,188,8.0,-999.0,-999,0.00,,,-99.99,,2013-01-13 22:53:00,
2013-01-13 17:03:00,68.0,-99.9,-100.00,North,8,11.0,-999.0,-999,0.00,,,-99.99,,2013-01-13 23:03:00,
2013-01-13 17:12:00,68.0,-99.9,-100.00,North,8,11.0,-999.0,-999,0.00,,,-99.99,,2013-01-13 23:12:00,
2013-01-13 17:23:00,68.0,-99.9,-100.00,SSE,166,9.0,-999.0,-999,0.00,,,-99.99,,2013-01-13 23:23:00,
2013-01-13 17:33:00,67.0,-99.9,-100.00,SE,145,11.0,-999.0,-999,0.00,,,-99.99,,2013-01-13 23:33:00,
2013-01-13 17:43:00,67.0,-99.9,-100.00,SE,145,11.0,-999.0,-999,0.00,,,-99.99,,2013-01-13 23:43:00,
2013-01-13 17:53:00,67.0,-99.9,-100.00,SSE,166,11.0,-999.0,-999,0.00,,,-99.99,,2013-01-13 23:53:00,
2013-01-13 18:03:00,67.0,-99.9,-100.00,South,176,7.0,-999.0,-999,0.00,,,-99.99,,2013-01-14 00:03:00,
2013-01-13 18:13:00,67.0,-99.9,-100.00,South,176,7.0,-999.0,-999,0.00,,,-99.99,,2013-01-14 00:13:00,
2013-01-13 18:23:00,66.0,-99.9,-100.00,South,183,6.0,-999.0,-999,0.00,,,-99.99,,2013-01-14 00:23:00,
2013-01-13 18:33:00,68.0,-99.9,-100.00,South,186,9.0,-999.0,-999,0.00,,,-99.99,,2013-01-14 00:33:00,
2013-01-13 18:43:00,68.0,-99.9,-100.00,South,186,9.0,-999.0,-999,0.00,,,-99.99,,2013-01-14 00:43:00,
2013-01-13 18:53:00,68.0,-99.9,-100.00,SSE,166,11.0,-999.0,-999,0.00,,,-99.99,,2013-01-14 00:53:00,
2013-01-13 19:03:00,68.0,-99.9,-100.00,SSE,152,6.0,-999.0,-999,0.00,,,-99.99,,2013-01-14 01:03:00,
2013-01-13 19:13:00,68.0,-99.9,-100.00,SSE,152,6.0,-999.0,-999,0.00,,,-99.99,,2013-01-14 01:13:00,
2013-01-13 19:23:00,68.0,-99.9,-100.00,SSE,160,10.0,-999.0,-999,0.00,,,-99.99,,2013-01-14 01:23:00,
2013-01-13 19:33:00,68.0,-99.9,-100.00,South,169,8.0,-999.0,-999,0.00,,,-99.99,,2013-01-14 01:33:00,
2013-01-13 19:43:00,68.0,-99.9,-100.00,South,169,8.0,-999.0,-999,0.00,,,-99.99,,2013-01-14 01:43:00,
2013-01-13 19:53:00,68.0,-99.9,-100.00,SSE,167,7.0,-999.0,-999,0.00,,,-99.99,,2013-01-14 01:53:00,
2013-01-13 20:03:00,68.0,-99.9,-100.00,South,170,8.0,-999.0,-999,0.00,,,-99.99,,2013-01-14 02:03:00,
2013-01-13 20:12:00,68.0,-99.9,-100.00,SSE,160,9.0,-999.0,-999,0.00,,,-99.99,,2013-01-14 02:12:00,
2013-01-13 20:23:00,68.0,-99.9,-100.00,SSE,160,9.0,-999.0,-999,0.00,,,-99.99,,2013-01-14 02:23:00,
2013-01-13 20:33:00,68.0,-99.9,-100.00,SSE,163,11.0,-999.0,-999,0.00,,,-99.99,,2013-01-14 02:33:00,
2013-01-13 20:43:00,68.0,-99.9,-100.00,SSE,163,11.0,-999.0,-999,0.00,,,-99.99,,2013-01-14 02:43:00,
2013-01-13 20:53:00,68.0,-99.9,-100.00,South,180,10.0,-999.0,-999,0.00,,,-99.99,,2013-01-14 02:53:00,
2013-01-13 21:03:00,68.0,-99.9,-100.00,SSE,160,10.0,-999.0,-999,0.00,,,-99.99,,2013-01-14 03:03:00,
2013-01-13 21:12:00,68.0,-99.9,-100.00,SSE,160,10.0,-999.0,-999,0.00,,,-99.99,,2013-01-14 03:12:00,
2013-01-13 21:22:00,68.0,-99.9,-100.00,SSE,166,13.0,-999.0,-999,0.00,,,-99.99,,2013-01-14 03:22:00,
2013-01-13 21:33:00,69.0,-99.9,-100.00,SSE,162,7.0,-999.0,-999,0.00,,,-99.99,,2013-01-14 03:33:00,
2013-01-13 21:43:00,69.0,-99.9,-100.00,SSE,162,7.0,-999.0,-999,0.00,,,-99.99,,2013-01-14 03:43:00,
2013-01-13 21:53:00,67.0,-99.9,-100.00,SE,146,9.0,-999.0,-999,0.00,,,-99.99,,2013-01-14 03:53:00,
2013-01-13 22:03:00,67.0,-99.9,-100.00,SSE,149,7.0,-999.0,-999,0.00,,,-99.99,,2013-01-14 04:03:00,
2013-01-13 22:12:00,67.0,-99.9,-100.00,SSE,149,7.0,-999.0,-999,0.00,,,-99.99,,2013-01-14 04:12:00,
2013-01-13 22:22:00,67.0,-99.9,-100.00,SE,145,9.0,-999.0,-999,0.00,,,-99.99,,2013-01-14 04:22:00,
2013-01-13 22:32:00,66.0,-99.9,-100.00,SE,141,10.0,-999.0,-999,0.00,,,-99.99,,2013-01-14 04:32:00,
2013-01-13 22:42:00,66.0,-99.9,-100.00,SE,141,10.0,-999.0,-999,0.00,,,-99.99,,2013-01-14 04:42:00,
2013-01-13 22:53:00,66.0,-99.9,-100.00,South,179,12.0,-999.0,-999,0.00,,,-99.99,,2013-01-14 04:53:00,
2013-01-13 23:04:00,67.0,-99.9,-100.00,SSE,160,8.0,-999.0,-999,0.00,,,-99.99,,2013-01-14 05:04:00,
2013-01-13 23:12:00,67.0,-99.9,-100.00,SSE,160,8.0,-999.0,-999,0.00,,,-99.99,,2013-01-14 05:12:00,
2013-01-13 23:22:00,67.0,-99.9,-100.00,SSE,155,9.0,-999.0,-999,0.00,,,-99.99,,2013-01-14 05:22:00,
2013-01-13 23:33:00,67.0,-99.9,-100.00,South,180,0.0,-999.0,-999,0.00,,,-99.99,,2013-01-14 05:33:00,
2013-01-13 23:43:00,67.0,-99.9,-100.00,South,180,0.0,-999.0,-999,0.00,,,-99.99,,2013-01-14 05:43:00,
2013-01-13 23:53:00,66.0,-99.9,-100.00,NW,322,8.0,-999.0,-999,0.00,,,-99.99,,2013-01-14 05:53:00,